Regional Weather Roundup
Issued by NWS Lake Charles, LA

Home | Current Version | Previous Version | Text Only | Print | Product List | Glossary On
Versions: 1 2 3 4 5 6 7 8 9 10 11 12 13 14 15 16 17 18 19 20 21 22 23 24 25 26 27 28
000
ASUS44 KLCH 270310
RWRLCH
REGIONAL WEATHER ROUNDUP
NATIONAL WEATHER SERVICE LAKE CHARLES LA
1000 PM CDT THU APR 26 2018

Note: "fair" indicates few or no clouds below 12,000 feet with no
significant weather and/or obstructions to visibility.


ACROSS SOUTHEAST TEXAS

CITY           SKY/WX    TMP DP  RH WIND       PRES   REMARKS
BEAUMONT       FAIR      62  51  67 N3        29.96R
BEAUMONT CITY  FAIR      64  54  71 NW3       29.97R
ORANGE         FAIR      57  55  95 CALM      29.98R
JASPER         FAIR      62  54  73 NE5       30.01R
$$

ACROSS CENTRAL LOUISIANA

CITY           SKY/WX    TMP DP  RH WIND       PRES   REMARKS
LEESVILLE      FAIR      56  51  82 N3        29.97R
FULLERTON      FAIR      54  51  90 CALM      29.95R
ALEXANDRIA INT FAIR      55  50  83 CALM      29.96R
ESLER FIELD    FAIR      51  51 100 CALM      29.97R
DERIDDER       FAIR      60  49  67 CALM      29.99R
OAKDALE        FAIR      54  51  92 CALM      29.98R
OPELOUSAS      FAIR      58  50  76 NE3       29.97S
$$

ACROSS SOUTHWEST AND SOUTH CENTRAL LOUISIANA

CITY           SKY/WX    TMP DP  RH WIND       PRES   REMARKS
SULPHUR        FAIR      64  50  60 N3        29.96R
LAKE CHARLES   FAIR      65  51  60 N6        29.96R
CHENNAULT INT  CLEAR     63  52  67 NE6       29.96R
CAMERON PHI    CLEAR     64  52  63 NE6       29.95R
DEQUINCY       MOCLDY    62  51  67 N5        29.98R
JENNINGS       FAIR      62  53  72 MISG      29.97R
LAFAYETTE      FAIR      60  52  74 NE7       29.97R
NEW IBERIA     FAIR      62  50  64 NE15      29.97R
ABBEVILLE      FAIR      61  54  77 NE6       29.96R
PATTERSON      FAIR      63  53  70 N8        29.96R
SALT POINT       N/A    N/A N/A N/A VRB3      29.94R
$$

SELECTED SITES ACROSS THE REGION

CITY           SKY/WX    TMP DP  RH WIND       PRES   REMARKS
HOUSTON BUSH   FAIR      65  51  60 VRB5      29.96R
HOUSTON HOBBY  MOCLDY    64  56  75 S5        29.96R
GALVESTON      FAIR      65  58  78 SW5       29.96R
COLLEGE STAT   CLEAR     66  48  52 NE5       29.99R
CONROE         CLEAR     55  54  96 NW3       29.98R
HUNTSVILLE     CLEAR     60  51  72 CALM      29.99R
LUFKIN         CLEAR     59  51  75 NE3       29.99R
SHREVEPORT     FAIR      55  52  89 W5        29.99R
MONROE         FAIR      60  53  77 CALM      29.97R
NATCHEZ MS     FAIR      56  53  90 CALM      29.98R
BATON ROUGE    FAIR      58  49  72 CALM      29.97R
N.O. INTL ARPT FAIR      65  53  65 N10       29.95R
SLIDELL        FAIR      59  51  75 N5        29.95R
$$

MARINE REPORTS

STATION/POSITION TIME  SKY/WX   TEMP    WIND        PRES    VSBY
                                AIR SEA DIR/SP/G
                 (UTC)          (F)     (DEG/KT/KT) (MB)    (MI)
BUOY 30 S HIGH I NOT AVBL
SEA RIM ST PARK  0300            64     350/  6/  6 1015.0R
PORT ARTHUR      0248            67 69   30/  4/  6 1014.6R
SABINE PASS N    0248            68 73   60/  4/  5 1015.9R
TEXAS POINT      NOT AVBL
CALCASIEU PASS   0248            67 72   30/  4/  6 1013.2R
LK CHARLES BEACH 0248            65 75              1014.1R
MARSH ISLAND     0200            70                   N/A
FRESH WATER LOCK 0248            64 74              1013.9R
AMERADA PASS     NOT AVBL
$$




USA.gov is the U.S. government's official web portal to all federal, state and local government web resources and services.